| time (UTC) | temp F | wind direction | speed knots | gust knots | rain 1hr in | rain 24hr in | rain mn in | humidity % | barometer mb |
| 20260507161551 | 77 | 350 | 7.8 | 13.9 | 0.00 | 0.00 | 0.00 | 30 | 1018.1 |
| 20260507160047 | 76 | 343 | 4.3 | 11.3 | 0.00 | 0.00 | 0.00 | 30 | 1018.3 |
| 20260507154550 | 75 | 360 | 7.0 | 14.8 | 0.00 | 0.00 | 0.00 | 29 | 1018.2 |
| 20260507153037 | 74 | 360 | 13.0 | 18.2 | 0.00 | 0.00 | 0.00 | 26 | 1018.1 |
| 20260507151534 | 73 | 360 | 8.7 | 15.6 | 0.00 | 0.00 | 0.00 | 27 | 1017.9 |
| 20260507150030 | 71 | 350 | 10.4 | 20.0 | 0.00 | 0.00 | 0.00 | 28 | 1017.9 |
| 20260507144529 | 71 | 360 | 13.0 | 17.4 | 0.00 | 0.00 | 0.00 | 27 | 1017.9 |
| 20260507143027 | 69 | 360 | 14.8 | 19.1 | 0.00 | 0.00 | 0.00 | 27 | 1018.1 |
| 20260507141515 | 69 | 360 | 11.3 | 17.4 | 0.00 | 0.00 | 0.00 | 28 | 1018.1 |
| 20260507140010 | 68 | 360 | 15.6 | 20.9 | 0.00 | 0.00 | 0.00 | 29 | 1018.0 |
| 20260507134510 | 68 | 345 | 13.9 | 19.1 | 0.00 | 0.00 | 0.00 | 28 | 1017.9 |
| 20260507133002 | 66 | 9 | 13.0 | 19.1 | 0.00 | 0.00 | 0.00 | 30 | 1017.8 |
| 20260507131600 | 65 | 355 | 12.2 | 15.6 | 0.00 | 0.00 | 0.00 | 33 | 1017.7 |
| 20260507130108 | 64 | 360 | 13.9 | 16.5 | 0.00 | 0.00 | 0.00 | 36 | 1017.4 |
| 20260507124552 | 63 | 327 | 11.3 | 16.5 | 0.00 | 0.00 | 0.00 | 38 | 1017.2 |
| 20260507123052 | 64 | 11 | 8.7 | 14.8 | 0.00 | 0.00 | 0.00 | 37 | 1017.3 |
| 20260507121601 | 64 | 340 | 9.6 | 14.8 | 0.00 | 0.00 | 0.00 | 37 | 1017.0 |
| 20260507120054 | 65 | 360 | 10.4 | 13.9 | 0.00 | 0.00 | 0.00 | 37 | 1016.9 |
| 20260507114621 | 65 | 360 | 11.3 | 14.8 | 0.00 | 0.00 | 0.00 | 37 | 1016.7 |
| 20260507113039 | 65 | 360 | 11.3 | 13.0 | 0.00 | 0.00 | 0.00 | 38 | 1016.8 |
| 20260507111537 | 65 | 339 | 8.7 | 11.3 | 0.00 | 0.00 | 0.00 | 38 | 1016.8 |
| 20260507110036 | 66 | 346 | 8.7 | 13.0 | 0.00 | 0.00 | 0.00 | 37 | 1016.7 |
| 20260507104534 | 66 | 360 | 9.6 | 14.8 | 0.00 | 0.00 | 0.00 | 37 | 1016.9 |
| 20260507103033 | 66 | 360 | 10.4 | 13.0 | 0.00 | 0.00 | 0.00 | 38 | 1016.7 |
| 20260507101532 | 66 | 360 | 11.3 | 14.8 | 0.00 | 0.00 | 0.00 | 37 | 1016.6 |
| 20260507100034 | 66 | 360 | 9.6 | 13.0 | 0.00 | 0.00 | 0.00 | 39 | 1016.6 |
| 20260507094530 | 66 | 360 | 8.7 | 12.2 | 0.00 | 0.00 | 0.00 | 38 | 1016.4 |
| 20260507093029 | 65 | 360 | 9.6 | 12.2 | 0.00 | 0.00 | 0.00 | 38 | 1016.3 |
| 20260507091531 | 66 | 360 | 12.2 | 15.6 | 0.00 | 0.00 | 0.00 | 33 | 1016.3 |
| 20260507090035 | 65 | 360 | 9.6 | 13.0 | 0.00 | 0.00 | 0.00 | 33 | 1016.5 |
| 20260507084527 | 65 | 360 | 12.2 | 14.8 | 0.00 | 0.00 | 0.00 | 31 | 1016.4 |
| 20260507083029 | 65 | 360 | 8.7 | 13.9 | 0.00 | 0.00 | 0.00 | 31 | 1016.6 |
| 20260507081522 | 65 | 360 | 11.3 | 13.9 | 0.00 | 0.00 | 0.00 | 29 | 1016.5 |
| 20260507080024 | 65 | 360 | 12.2 | 15.6 | 0.00 | 0.00 | 0.00 | 29 | 1016.6 |
| 20260507074520 | 65 | 360 | 11.3 | 14.8 | 0.00 | 0.00 | 0.00 | 28 | 1016.7 |
| 20260507073017 | 66 | 360 | 9.6 | 14.8 | 0.00 | 0.00 | 0.00 | 28 | 1016.8 |
| 20260507071515 | 67 | 360 | 8.7 | 13.0 | 0.00 | 0.00 | 0.00 | 28 | 1016.6 |
| 20260507070014 | 67 | 360 | 11.3 | 17.4 | 0.00 | 0.00 | 0.00 | 28 | 1016.5 |
| 20260507064510 | 67 | 360 | 5.2 | 12.2 | 0.00 | 0.00 | 0.00 | 28 | 1016.6 |
| 20260507063007 | 68 | 360 | 6.1 | 11.3 | 0.00 | 0.00 | 0.00 | 27 | 1016.5 |
| 20260507061506 | 68 | 360 | 6.1 | 11.3 | 0.00 | 0.00 | 0.00 | 26 | 1016.5 |
| 20260507060005 | 68 | 360 | 8.7 | 10.4 | 0.00 | 0.00 | 0.00 | 26 | 1016.2 |
| 20260507054508 | 68 | 360 | 7.0 | 9.6 | 0.00 | 0.00 | 0.00 | 27 | 1016.2 |
| 20260507053121 | 68 | 360 | 8.7 | 13.0 | 0.00 | 0.00 | 0.00 | 26 | 1016.1 |
| 20260507051604 | 69 | 360 | 9.6 | 13.9 | 0.00 | 0.00 | 0.00 | 25 | 1015.7 |
| 20260507050054 | 69 | 360 | 10.4 | 14.8 | 0.00 | 0.00 | 0.00 | 25 | 1015.7 |
| 20260507044553 | 70 | 360 | 8.7 | 13.0 | 0.00 | 0.00 | 0.00 | 24 | 1015.6 |
| 20260507043052 | 70 | 360 | 4.3 | 10.4 | 0.00 | 0.00 | 0.00 | 24 | 1015.5 |
| 20260507041553 | 70 | 360 | 3.5 | 7.0 | 0.00 | 0.00 | 0.00 | 24 | 1015.4 |
| 20260507040055 | 71 | 360 | 3.5 | 8.7 | 0.00 | 0.00 | 0.00 | 24 | 1015.4 |
| 20260507034555 | 69 | 360 | 4.3 | 8.7 | 0.00 | 0.00 | 0.00 | 26 | 1015.2 |
| 20260507033055 | 69 | 360 | 4.3 | 7.8 | 0.00 | 0.00 | 0.00 | 26 | 1015.0 |
| 20260507031549 | 70 | 360 | 1.7 | 5.2 | 0.00 | 0.00 | 0.00 | 25 | 1014.9 |
| 20260507030049 | 71 | 360 | 1.7 | 3.5 | 0.00 | 0.00 | 0.00 | 24 | 1014.7 |
| 20260507024600 | 73 | 360 | 1.7 | 3.5 | 0.00 | 0.00 | 0.00 | 23 | 1014.4 |
| 20260507023050 | 74 | 240 | 2.6 | 4.3 | 0.00 | 0.00 | 0.00 | 21 | 1014.3 |
| 20260507021548 | 76 | 193 | 2.6 | 4.3 | 0.00 | 0.00 | 0.00 | 20 | 1014.1 |
| 20260507020106 | 76 | 238 | 0.9 | 1.7 | 0.00 | 0.00 | 0.00 | 19 | 1014.0 |
| 20260507014552 | 78 | 230 | 0.9 | 4.3 | 0.00 | 0.00 | 0.00 | 18 | 1013.8 |
| 20260507013052 | 79 | 167 | 2.6 | 7.0 | 0.00 | 0.00 | 0.00 | 17 | 1013.6 |
| 20260507011545 | 80 | 257 | 6.1 | 9.6 | 0.00 | 0.00 | 0.00 | 16 | 1013.4 |
| 20260507010048 | 82 | 269 | 2.6 | 6.1 | 0.00 | 0.00 | 0.00 | 15 | 1013.3 |
| 20260507004553 | 82 | 257 | 0.9 | 3.5 | 0.00 | 0.00 | 0.00 | 17 | 1013.1 |
| 20260507003048 | 84 | 335 | 1.7 | 4.3 | 0.00 | 0.00 | 0.00 | 15 | 1012.9 |
| 20260507001546 | 83 | 207 | 1.7 | 4.3 | 0.00 | 0.00 | 0.00 | 18 | 1012.9 |
| 20260507000041 | 84 | 161 | 0.9 | 4.3 | 0.00 | 0.00 | 0.00 | 17 | 1012.8 |
| 20260506234547 | 82 | 223 | 0.9 | 4.3 | 0.00 | 0.00 | 0.00 | 18 | 1012.8 |
| 20260506233051 | 83 | 263 | 6.1 | 9.6 | 0.00 | 0.00 | 0.00 | 16 | 1012.8 |
| 20260506231539 | 83 | 265 | 5.2 | 8.7 | 0.00 | 0.00 | 0.00 | 15 | 1012.8 |
| 20260506230046 | 83 | 299 | 0.0 | 3.5 | 0.00 | 0.00 | 0.00 | 17 | 1012.9 |
| 20260506224537 | 83 | 174 | 2.6 | 5.2 | 0.00 | 0.00 | 0.00 | 15 | 1013.0 |
| 20260506223042 | 83 | 53 | 3.5 | 10.4 | 0.00 | 0.00 | 0.00 | 17 | 1013.0 |
| 20260506221535 | 83 | 227 | 4.3 | 7.8 | 0.00 | 0.00 | 0.00 | 15 | 1013.2 |
| 20260506220035 | 82 | 230 | 0.9 | 9.6 | 0.00 | 0.00 | 0.00 | 17 | 1013.1 |
| 20260506214540 | 83 | 247 | 3.5 | 8.7 | 0.00 | 0.00 | 0.00 | 16 | 1013.3 |
| 20260506213040 | 82 | 281 | 1.7 | 8.7 | 0.00 | 0.00 | 0.00 | 17 | 1013.4 |
| 20260506211533 | 82 | 294 | 1.7 | 6.1 | 0.00 | 0.00 | 0.00 | 17 | 1013.6 |
| 20260506210033 | 82 | 240 | 2.6 | 12.2 | 0.00 | 0.00 | 0.00 | 16 | 1013.9 |
| 20260506204532 | 82 | 293 | 4.3 | 11.3 | 0.00 | 0.00 | 0.00 | 16 | 1014.1 |
| 20260506203033 | 83 | 278 | 5.2 | 8.7 | 0.00 | 0.00 | 0.00 | 16 | 1014.2 |
| 20260506201531 | 82 | 209 | 1.7 | 8.7 | 0.00 | 0.00 | 0.00 | 16 | 1014.3 |
| 20260506200030 | 82 | 258 | 6.1 | 14.8 | 0.00 | 0.00 | 0.00 | 15 | 1014.4 |
| 20260506194530 | 83 | 227 | 5.2 | 13.0 | 0.00 | 0.00 | 0.00 | 17 | 1014.3 |
| 20260506193026 | 83 | 232 | 7.8 | 10.4 | 0.00 | 0.00 | 0.00 | 15 | 1014.5 |
| 20260506191526 | 82 | 257 | 7.8 | 14.8 | 0.00 | 0.00 | 0.00 | 16 | 1014.6 |
| 20260506190024 | 82 | 192 | 3.5 | 6.1 | 0.00 | 0.00 | 0.00 | 19 | 1014.8 |
| 20260506184539 | 80 | 277 | 6.1 | 12.2 | 0.00 | 0.00 | 0.00 | 19 | 1015.1 |
| 20260506183030 | 81 | 272 | 7.8 | 16.5 | 0.00 | 0.00 | 0.00 | 17 | 1015.1 |
| 20260506181525 | 80 | 275 | 3.5 | 13.9 | 0.00 | 0.00 | 0.00 | 19 | 1015.1 |
| 20260506180017 | 79 | 246 | 7.8 | 14.8 | 0.00 | 0.00 | 0.00 | 20 | 1015.4 |
| 20260506174518 | 79 | 226 | 8.7 | 13.9 | 0.00 | 0.00 | 0.00 | 20 | 1015.5 |
| 20260506173012 | 78 | 213 | 7.0 | 13.9 | 0.00 | 0.00 | 0.00 | 21 | 1015.7 |
| 20260506171510 | 78 | 294 | 7.8 | 13.9 | 0.00 | 0.00 | 0.00 | 21 | 1015.7 |
| 20260506170010 | 78 | 294 | 7.8 | 11.3 | 0.00 | 0.00 | 0.00 | 23 | 1015.6 |
| 20260506164508 | 77 | 274 | 6.1 | 10.4 | 0.00 | 0.00 | 0.00 | 23 | 1015.6 |
| 20260506163003 | 76 | 360 | 6.1 | 11.3 | 0.00 | 0.00 | 0.00 | 23 | 1015.4 |